Temp
5 5 5 4 4 4 4 3 3 2 2 1 2 1 1 1 1 0 -0 -0 -0 -1 -1 -2 -2 -2 -2 -2 -2 -2 -2 -2
5 5 5 4 4 4 3 3 2 2 1 1 1 1 1 1 0 -0 -0 -1 -1 -2 -2 -2 -2 -2 -2 -2 -2 -2 -3 -3
5 5 5 4 4 3 3 3 2 2 2 1 1 0 -0 -0 -1 -1 -1 -1 -1 -1 -1 -2 -2 -2 -3 -3 -3 -3 -3 -4
5 5 5 4 4 3 3 2 2 1 0 -0 -0 -0 -0 -0 -0 -0 -0 -1 -1 -1 -2 -3 -3 -3 -3 -3 -4 -5 -5 -6
4 4 4 4 3 3 2 2 2 1 0 -0 -1 -1 -1 -1 -1 -1 -2 -2 -2 -2 -3 -3 -3 -4 -5 -5 -6 -7 -8 -8
4 3 3 3 2 2 2 2 1 0 0 -0 -1 -1 -1 -1 -2 -2 -2 -2 -3 -4 -4 -5 -5 -6 -7 -7 -8 -9 -9 -9
3 3 3 3 2 2 2 1 0 -0 -1 -1 -1 -2 -2 -2 -2 -3 -3 -3 -4 -5 -5 -6 -6 -7 -7 -8 -9 -11 -10 -10
3 3 3 2 2 2 1 1 -0 -1 -2 -2 -3 -3 -3 -3 -3 -3 -3 -4 -5 -5 -6 -7 -7 -8 -8 -9 -10 -11 -11 -11
3 3 2 2 2 1 1 0 -1 -1 -2 -3 -3 -3 -3 -3 -3 -4 -4 -5 -6 -7 -7 -7 -8 -8 -9 -10 -11 -11 -12 -12
3 2 2 2 2 1 -0 -1 -1 -2 -2 -3 -3 -2 -3 -4 -4 -5 -6 -6 -7 -7 -7 -8 -9 -9 -10 -12 -12 -13 -13 -13
2 2 2 2 1 0 -0 -1 -2 -2 -2 -3 -3 -4 -4 -5 -5 -6 -6 -7 -7 -8 -8 -9 -10 -11 -12 -13 -13 -13 -14 -14
2 2 2 1 0 -1 -1 -2 -2 -2 -3 -4 -4 -5 -5 -5 -6 -7 -7 -8 -8 -9 -9 -10 -11 -12 -12 -13 -14 -14 -14 -14
2 2 1 0 -1 -1 -2 -2 -2 -3 -3 -5 -5 -5 -6 -6 -7 -8 -8 -9 -9 -10 -10 -11 -12 -12 -13 -14 -14 -14 -15 -15
2 1 0 -1 -2 -2 -2 -2 -3 -4 -5 -5 -6 -6 -7 -7 -8 -8 -9 -9 -10 -10 -11 -12 -12 -14 -14 -15 -15 -15 -15 -15
1 0 -1 -2 -2 -2 -3 -4 -4 -5 -5 -6 -6 -7 -8 -8 -8 -9 -9 -10 -11 -11 -12 -13 -13 -14 -15 -15 -15 -15 -15 -16
0 -1 -2 -2 -2 -3 -3 -4 -4 -5 -6 -7 -7 -8 -8 -8 -9 -10 -10 -11 -12 -12 -13 -13 -14 -14 -15 -15 -15 -16 -16 -16
-1 -1 -2 -2 -2 -3 -4 -4 -5 -6 -7 -7 -8 -8 -9 -9 -10 -10 -11 -12 -12 -13 -13 -14 -14 -15 -15 -16 -16 -16 -16 -16
-1 -2 -2 -3 -4 -4 -5 -5 -6 -7 -7 -8 -8 -9 -9 -10 -10 -11 -12 -12 -13 -13 -14 -14 -15 -15 -16 -16 -16 -16 -16 -16
-2 -2 -3 -3 -4 -5 -6 -6 -7 -7 -8 -8 -9 -9 -9 -10 -11 -12 -12 -13 -13 -14 -14 -15 -15 -16 -16 -16 -16 -16 -16 -16
Height
3177 3177 3177 3178 3178 3179 3179 3178 3178 3178 3175 3174 3172 3171 3171 3171 3170 3169 3168 3165 3162 3159 3156 3152 3147 3143 3139 3134 3129 3124 3119 3115
3175 3175 3176 3175 3176 3176 3175 3175 3175 3174 3172 3171 3169 3168 3169 3169 3168 3166 3163 3160 3156 3152 3147 3143 3139 3135 3129 3125 3119 3114 3108 3103
3170 3171 3171 3171 3173 3173 3172 3172 3171 3170 3169 3167 3167 3166 3165 3163 3161 3159 3156 3152 3148 3143 3139 3134 3128 3121 3115 3110 3106 3101 3097 3092
3165 3166 3166 3167 3168 3169 3169 3168 3167 3165 3164 3163 3163 3161 3160 3158 3156 3152 3148 3143 3138 3134 3128 3122 3116 3111 3106 3100 3095 3090 3086 3082
3163 3163 3164 3163 3164 3164 3164 3163 3162 3162 3161 3161 3160 3157 3155 3151 3147 3143 3138 3133 3128 3123 3118 3113 3107 3101 3095 3090 3085 3080 3075 3071
3160 3161 3162 3162 3161 3162 3161 3161 3159 3159 3158 3157 3154 3151 3148 3144 3139 3134 3129 3123 3118 3111 3106 3101 3095 3089 3084 3078 3073 3067 3062 3057
3158 3158 3160 3159 3161 3159 3159 3157 3156 3155 3153 3150 3147 3144 3140 3136 3131 3125 3120 3114 3108 3101 3095 3090 3085 3079 3072 3065 3059 3055 3051 3047
3156 3158 3159 3158 3157 3157 3155 3154 3152 3149 3146 3143 3140 3137 3133 3128 3122 3116 3111 3105 3099 3092 3085 3079 3072 3066 3061 3055 3050 3046 3043 3040
3153 3154 3155 3154 3153 3152 3150 3148 3145 3142 3139 3136 3133 3130 3124 3118 3113 3107 3101 3094 3087 3081 3075 3069 3063 3058 3053 3049 3042 3039 3036 3031
3149 3150 3150 3149 3147 3146 3144 3140 3137 3135 3132 3128 3124 3120 3114 3110 3105 3098 3092 3086 3079 3073 3067 3061 3055 3049 3043 3039 3036 3031 3027 3022
3145 3145 3145 3143 3142 3140 3137 3133 3131 3128 3124 3121 3117 3111 3107 3102 3097 3090 3083 3077 3070 3064 3057 3051 3044 3039 3034 3030 3026 3021 3018 3014
3140 3141 3139 3138 3136 3134 3130 3126 3124 3122 3118 3113 3108 3104 3099 3093 3086 3080 3073 3067 3059 3053 3046 3040 3035 3030 3026 3021 3018 3015 3011 3008
3136 3135 3133 3132 3130 3127 3123 3120 3118 3115 3110 3105 3100 3094 3089 3082 3076 3069 3063 3056 3049 3043 3036 3031 3025 3021 3017 3014 3012 3009 3006 3002
3129 3128 3127 3125 3123 3120 3118 3115 3112 3106 3101 3096 3091 3085 3079 3073 3067 3061 3054 3047 3041 3034 3028 3023 3017 3013 3010 3007 3005 3003 2999 2995
3123 3123 3122 3120 3117 3114 3112 3107 3101 3097 3093 3089 3083 3077 3072 3066 3059 3052 3045 3038 3032 3025 3019 3013 3009 3006 3004 3002 2999 2996 2992 2987
3118 3117 3116 3114 3110 3108 3104 3099 3094 3091 3087 3082 3076 3070 3064 3059 3051 3045 3037 3030 3024 3017 3011 3006 3003 3000 2998 2996 2993 2989 2985 2979
3111 3111 3109 3106 3104 3100 3096 3092 3088 3085 3080 3075 3069 3063 3057 3050 3043 3036 3030 3023 3016 3010 3005 3001 2997 2995 2992 2989 2986 2982 2977 2971
3105 3104 3102 3100 3096 3093 3089 3085 3082 3077 3072 3067 3062 3055 3048 3041 3035 3028 3022 3015 3009 3004 2999 2995 2991 2988 2985 2982 2979 2975 2970 2964
3099 3098 3095 3091 3088 3084 3081 3078 3074 3070 3065 3060 3054 3046 3040 3033 3027 3020 3013 3008 3003 2998 2993 2989 2986 2982 2979 2976 2972 2968 2963 2957
Wind_Speed
10 9 9 8 10 12 13 19 21 20 21 13 11 8 9 12 15 19 25 30 32 32 34 37 38 40 44 47 49 52 53 56
14 14 13 15 16 14 15 17 19 20 19 16 14 11 13 18 21 24 26 27 29 31 34 37 39 43 45 48 49 51 51 53
15 16 18 22 16 12 13 15 16 17 16 17 14 14 17 21 23 25 28 31 35 38 40 43 47 49 51 53 52 52 54 54
8 4 3 4 3 7 10 11 10 10 11 13 13 19 22 24 26 30 34 37 40 41 44 47 50 52 53 54 55 54 53 52
5 1 2 8 7 5 7 10 12 12 12 13 17 20 24 29 33 36 39 42 43 45 47 48 49 50 50 50 49 47 46 45
6 4 4 4 11 16 18 16 13 11 12 17 22 26 31 35 38 40 42 44 45 46 47 48 47 47 46 45 43 43 42 41
7 9 5 14 18 14 16 18 17 17 19 23 26 30 35 39 40 41 43 44 44 46 47 47 45 44 44 44 41 40 44 45
11 8 14 17 12 13 18 19 21 22 23 26 30 33 37 40 42 42 43 43 43 44 45 44 44 44 42 43 38 43 45 43
10 11 17 12 14 19 22 24 27 26 25 29 33 37 41 43 43 43 43 43 43 43 43 44 44 43 42 34 43 43 43 40
13 16 15 17 19 22 25 28 30 31 32 35 39 44 40 41 42 41 41 42 43 42 42 42 41 40 38 37 40 34 28 29
16 18 19 22 23 26 29 33 33 34 37 38 41 35 38 39 40 41 41 42 42 42 42 40 38 37 34 32 30 29 30 32
20 21 24 26 28 30 36 37 31 37 38 39 35 36 38 41 42 42 43 44 43 41 41 39 36 35 31 28 30 30 33 31
25 25 27 30 31 36 41 34 39 40 39 33 35 39 42 43 44 45 46 45 43 41 40 36 34 31 27 27 27 29 32 33
27 27 28 31 34 37 36 39 39 34 30 34 38 41 43 44 46 47 48 46 43 40 37 34 30 26 25 26 25 29 32 36
28 27 29 32 34 37 34 42 32 30 34 36 40 42 44 46 48 49 48 45 43 40 36 31 27 26 25 25 28 29 32 34
28 28 28 32 36 35 40 34 32 32 34 37 41 44 46 48 49 48 46 44 40 37 33 29 25 22 22 27 28 30 32 35
28 27 32 30 34 35 35 34 31 33 35 38 42 45 47 49 48 46 44 41 38 35 30 26 22 21 26 26 28 31 34 33
26 28 27 32 33 35 35 31 31 34 36 40 43 46 49 49 46 44 43 39 36 33 29 26 24 24 24 28 30 32 31 31
23 26 30 32 35 36 29 29 32 34 38 41 44 48 49 47 44 43 41 37 33 30 27 25 24 23 25 28 28 28 29 29
Wind_Direction
232 252 260 269 277 270 275 275 283 285 299 311 310 312 294 291 290 291 296 301 305 307 300 297 299 299 299 299 299 297 296 295
247 255 261 265 268 265 269 277 279 286 293 297 312 310 310 308 301 301 303 305 302 297 295 296 297 298 297 297 299 298 299 302
266 264 259 248 256 267 277 286 288 300 307 312 317 318 319 318 315 309 308 309 305 301 301 304 305 306 307 308 308 305 304 304
208 218 298 333 336 344 320 306 304 310 320 327 328 324 318 314 314 316 314 312 310 310 309 310 310 309 307 307 307 306 305 302
189 178 287 261 10 352 329 341 345 331 332 320 315 317 320 321 319 316 314 313 313 311 310 307 306 306 305 304 301 301 299 296
172 274 266 301 355 328 325 301 306 323 312 309 312 316 321 320 317 315 313 312 311 310 309 309 308 306 304 303 302 296 295 302
226 206 243 315 305 310 298 296 297 304 299 300 306 313 317 316 314 313 312 312 312 310 309 308 309 309 310 308 306 297 304 306
217 229 301 307 292 295 306 293 288 285 284 301 308 312 315 314 313 314 313 311 309 309 310 314 314 314 312 310 300 303 306 304
243 269 310 292 308 297 295 290 284 285 287 291 301 313 320 317 314 315 315 314 315 316 316 315 312 310 306 290 290 304 302 301
270 288 300 307 299 290 287 285 282 288 291 300 309 319 316 315 314 315 316 317 317 317 314 311 308 306 305 295 296 303 308 303
275 293 297 291 279 277 280 277 280 290 294 307 315 315 313 313 315 320 320 320 320 319 317 315 312 306 306 301 306 305 305 309
275 280 284 277 273 273 276 275 293 293 306 321 314 313 316 321 324 325 325 325 324 322 320 316 310 309 306 310 304 303 304 305
268 269 272 270 269 272 272 287 294 297 318 312 316 321 325 326 328 328 327 327 327 324 319 313 310 305 303 300 302 301 298 301
266 267 272 267 267 271 283 289 304 321 315 321 324 325 328 329 329 328 328 327 327 323 317 311 310 305 298 298 297 300 297 304
263 266 263 262 270 277 289 310 322 320 323 323 325 327 328 328 328 327 327 327 327 323 318 317 309 302 293 291 299 297 303 306
265 266 262 269 274 300 311 316 318 319 322 324 326 326 327 327 326 326 327 326 325 323 320 316 309 305 293 297 298 303 308 310
267 266 267 285 303 306 310 312 315 319 322 325 325 326 325 325 325 326 325 324 324 323 317 312 307 293 297 302 302 305 310 310
267 272 287 295 300 302 305 309 315 319 322 324 324 322 323 324 323 324 324 322 321 320 314 309 305 303 302 302 306 310 310 315
275 279 286 296 298 303 306 312 316 320 323 322 321 321 321 321 322 323 322 320 317 314 311 310 310 308 305 307 309 310 316 316